{"data":{"norad_id":37868,"intl_designator":"2011-064B","name":"COSMOS 2477 (745)","alt_names":[],"object_type":"PAYLOAD","status":"ACTIVE","operator":null,"country":"CIS","launch_date":"2011-11-04","launch_site_code":"TYMSC","launch_vehicle":null,"mission":null,"orbit_class":"UNKNOWN","rcs_meters":5.566,"size_class":null,"mass_kg":null,"dimensions":null,"purposes":["nav"],"wikipedia_slug":null,"has_3d_model":false,"image_url":null,"decayed_at":null,"tle_current":{"epoch":"2026-09-19T13:37:24.384576Z","epoch_age_seconds":95017,"freshness":"FRESH","line1":"1 37868U 11064B   26262.56764334  .00000031  00000+0  00000+0 0  9992","line2":"2 37868  65.3351  69.7679 0019593 230.4390 160.0639  2.13103024115771","mean_motion":2.13103024,"eccentricity":0.0019593,"inclination_deg":65.3351,"raan_deg":69.7679,"arg_perigee_deg":230.439,"mean_anomaly_deg":160.0639,"bstar":0,"rev_number":11577,"period_min":675.72950067569,"perigee_km":19079.828001413,"apogee_km":19179.78342573,"semimajor_km":25507.942713571,"source":"CELESTRAK","updated_at":"2026-09-20T09:00:46.275384Z"}}}